Showing default

COSMOS 83, 1573

Orbit data source: Space-Track

COSMOS 83, 1573 is a payload satellite owned by OKB-10 (CIS) in LEO that was launched on Fri, 03 Sep 1965 UTC via a KOSMOS 65S3 launch vehicle from the Tyuratam Missile And Space Complex (TTMTR). Payload-class satellites include a variety of spacecraft equipped with specific instruments for various scientific and technological missions. These include communications satellites like Starlink; space stations such as the ISS; scientific satellites like the Hubble; Earth observation satellites from companies like Planet Labs, Umbra, and HawkEye 360; GPS; miniature CubeSats for education and research; and military/defense satellites.

Loading next visibility...
Identifier
1573, 1965-070D
Orbit
LEO
Last TLE update
14 hours ago
Origin
Manufacturer
OKB-10
Mission
Defense Communications
Bus & Motor
STRELA-1 11F610, Unknown motor
Mass
50 kg wet, 50 kg dry
Launch date (UTC)
1965-09-03 (60 years ago)
Launch vehicle
KOSMOS 65S3
Launch site
Tyuratam Missile And Space Complex (TTMTR)
Object type
Payload
Rocket body
Debris
Shape & HBR
Poly, 0.8 m
Radar Cross Section
0.731 m², Medium (>0.1 m² and < 1m²)

Expand to show TLE details & history

TLE from 14 hours ago
0 COSMOS 83
1 01573U 65070D   25182.26197592 -.00000101  00000-0 -62457-4 0  9995
2 01573  56.0513 195.0353 0066478 332.1643  27.5709 12.41041072711648
Epoch: 2025-07-01T06:17Z
TLE epoch observation values (Epoch: 2025-07-01T06:17:14.719Z)
Latitude
-0.00001°
Longitude
-178.83599°
Altitude
1,456.879 km
Speed
7.156 km/s
True Right ascension
13h 00m 08s
True Declination
0° 00' 00"
Sunlit
Object was in daylight at epoch
Visualization orbit readout
Latitude
23.47417°
Longitude
-17.33685°
Altitude
1,555.578 km
Speed
7.068 km/s
Apparent Right ascension
22h 23m 57s
Apparent Declination
-4° 48' 52"
Sunlit
Object is in daylight
Visualization observer readout
Local Sidereal Time
08:18:11
Azimuth
312.793° NW
Elevation
-44.905°
Doppler factor
1
Orbital elements
Apogee altitude
1,554.404 km
Perigee altitude
1,449.632 km
Semi-major axis
7,880.155 km
Eccentricity
0.00665
Inclination
56.0513°
RAAN
195.0353°
Arg. of periapsis
332.1643°
True anomaly
Unknown
Mean anomaly
27.5709°
Eccentric anomaly
Unknown
Mean motion
3.10271 °/min
Orbital period
116.03 mins
BSTAR
-0.000062457
Loading maneuver chart data...
Loading SW <> Apogee altitude chart data...
Loading historical data...
Loading historical data...
Loading historical data...
Loading historical data...
Loading historical data...
Loading historical data...
Loading historical data...
Other satellites on launch #70 in the year 1965 (1965-09-03 UTC)

COSMOS 83 Visibility forecast

Observer location: undefined°, undefined°

Span
Click to sort rows by Start time (UTC) header in descending order
Start Az.
Max El. time (UTC)
Max El. Az.
Max El.
End time (UTC)
End Az.
14 mins2025-07-02 01:43:04.533Z174.49° S2025-07-02 01:50:04.533Z115.975° SE27.979°2025-07-02 01:57:04.533Z62.172° ENE
16 mins2025-07-02 03:43:04.533Z234.791° WSW2025-07-02 03:50:04.533Z297.98° NW43.719°2025-07-02 03:59:04.533Z43.487° NE
14 mins2025-07-02 05:47:04.533Z288.849° WNW2025-07-02 05:53:04.533Z341.066° N28.76°2025-07-02 06:01:04.533Z44.339° NE
14 mins2025-07-02 07:51:04.533Z318.837° NNW2025-07-02 07:57:04.533Z8.106° NNE27.232°2025-07-02 08:05:04.533Z70.309° E
16 mins2025-07-02 09:53:04.533Z320.119° NNW2025-07-02 10:01:04.533Z50.334° ENE41.209°2025-07-02 10:09:04.533Z116.26° SE
15 mins2025-07-02 11:55:04.533Z298.969° NW2025-07-02 12:02:04.533Z232.257° WSW34.585°2025-07-02 12:10:04.533Z170.635° S
|